When you browse on this site, cookies collect data to enhance your experience and personalize the content and advertising you see.
Visit our Privacy Policy to learn more. By continuing to use the site, you agree to this use of cookies and data.
  • In Austria
  • List of Countries
  • For 7 days
  • Water Temperature
  • Weather Map
  • News
  • Weather Widgets
  • user-avatar
    Login

    Hourly Weather Maklok

    Today, 22 February, Saturday

    Time Temperature Precipitation Wind Pressure Humidity
    00:00 0°C° 0 mm 3 mps 748 mmHg 88%
    01:00 0°C° 0 mm 3 mps 748 mmHg 88%
    02:00 -1°C° 0 mm 3 mps 748 mmHg 87%
    03:00 -1°C° 0 mm 3 mps 748 mmHg 87%
    04:00 -1°C° 0 mm 3 mps 748 mmHg 87%
    05:00 -2°C° 0 mm 4 mps 748 mmHg 87%
    06:00 -1°C° 0 mm 4 mps 748 mmHg 88%
    07:00 -1°C° 0 mm 4 mps 748 mmHg 88%
    08:00 -1°C° 0 mm 4 mps 748 mmHg 89%
    09:00 -1°C° 0 mm 5 mps 748 mmHg 85%
    10:00 0°C° 0 mm 5 mps 748 mmHg 82%
    11:00 0°C° 0 mm 5 mps 747 mmHg 78%
    12:00 0°C° 0 mm 5 mps 747 mmHg 77%
    13:00 -1°C° 0 mm 6 mps 747 mmHg 76%
    14:00 -1°C° 0 mm 6 mps 746 mmHg 75%
    15:00 -1°C° 0 mm 6 mps 745 mmHg 75%
    16:00 -1°C° 0 mm 6 mps 744 mmHg 76%
    17:00 -1°C° 0 mm 6 mps 743 mmHg 76%
    18:00 -1°C° 0.2 mm 7 mps 742 mmHg 81%
    19:00 -1°C° 0.2 mm 8 mps 741 mmHg 85%
    20:00 -3°C° 0.2 mm 9 mps 740 mmHg 90%
    21:00 -3°C° 0.9 mm 9 mps 738 mmHg 92%
    22:00 -3°C° 0.9 mm 9 mps 737 mmHg 93%
    23:00 -3°C° 0.9 mm 9 mps 735 mmHg 95%

    Tomorrow, 23 February, Sunday

    Time Temperature Precipitation Wind Pressure Humidity
    00:00 -1°C° 0.9 mm 8 mps 735 mmHg 95%
    01:00 -1°C° 0.9 mm 8 mps 734 mmHg 95%
    02:00 -1°C° 0.9 mm 8 mps 733 mmHg 95%
    03:00 -1°C° 0.7 mm 7 mps 732 mmHg 93%
    04:00 +1°C° 0.7 mm 6 mps 732 mmHg 91%
    05:00 +1°C° 0.7 mm 6 mps 731 mmHg 89%
    06:00 +1°C° 0.1 mm 5 mps 731 mmHg 86%
    07:00 0°C° 0.1 mm 5 mps 731 mmHg 84%
    08:00 0°C° 0.1 mm 4 mps 731 mmHg 81%
    09:00 0°C° 0 mm 5 mps 731 mmHg 77%
    10:00 +1°C° 0 mm 5 mps 731 mmHg 73%
    11:00 +1°C° 0 mm 6 mps 731 mmHg 69%
    12:00 +1°C° 0 mm 6 mps 731 mmHg 68%
    13:00 +1°C° 0 mm 6 mps 731 mmHg 67%
    14:00 +1°C° 0 mm 6 mps 731 mmHg 67%
    15:00 +1°C° 0 mm 6 mps 730 mmHg 74%
    16:00 -1°C° 0 mm 6 mps 730 mmHg 81%
    17:00 -1°C° 0 mm 6 mps 729 mmHg 88%
    18:00 -1°C° 0.1 mm 6 mps 730 mmHg 88%
    19:00 -2°C° 0.1 mm 6 mps 730 mmHg 87%
    20:00 -1°C° 0.1 mm 5 mps 730 mmHg 87%
    21:00 -1°C° 0 mm 5 mps 729 mmHg 86%
    22:00 -1°C° 0 mm 5 mps 729 mmHg 85%
    23:00 -1°C° 0 mm 4 mps 728 mmHg 84%

    Day after tomorrow, 24 February, Monday

    Time Temperature Precipitation Wind Pressure Humidity
    00:00 -1°C° 0 mm 4 mps 728 mmHg 86%
    01:00 -2°C° 0 mm 4 mps 728 mmHg 88%
    02:00 -2°C° 0 mm 4 mps 728 mmHg 90%
    03:00 -2°C° 0 mm 4 mps 728 mmHg 90%
    04:00 -2°C° 0 mm 4 mps 728 mmHg 89%
    05:00 -2°C° 0 mm 4 mps 728 mmHg 89%
    06:00 -2°C° 0.1 mm 4 mps 729 mmHg 88%
    07:00 -2°C° 0.1 mm 4 mps 729 mmHg 88%
    08:00 -1°C° 0.1 mm 4 mps 729 mmHg 87%
    09:00 -1°C° 0.1 mm 4 mps 730 mmHg 82%
    10:00 -1°C° 0.1 mm 5 mps 731 mmHg 77%
    11:00 0°C° 0.1 mm 5 mps 731 mmHg 72%
    12:00 -1°C° 0 mm 6 mps 732 mmHg 66%
    13:00 -1°C° 0 mm 6 mps 733 mmHg 60%
    14:00 -1°C° 0 mm 6 mps 734 mmHg 55%
    15:00 -1°C° 0 mm 5 mps 734 mmHg 58%
    16:00 -1°C° 0 mm 4 mps 735 mmHg 61%
    17:00 -1°C° 0 mm 3 mps 736 mmHg 65%
    18:00 -1°C° 0 mm 3 mps 736 mmHg 67%
    19:00 -2°C° 0 mm 3 mps 737 mmHg 70%
    20:00 -2°C° 0 mm 3 mps 737 mmHg 73%
    21:00 -2°C° 0 mm 3 mps 737 mmHg 73%
    22:00 -2°C° 0 mm 3 mps 737 mmHg 74%
    23:00 -2°C° 0 mm 3 mps 738 mmHg 74%

    25 February, Tuesday

    Time Temperature Precipitation Wind Pressure Humidity
    00:00 -2°C° 0 mm 3 mps 738 mmHg 76%
    01:00 -2°C° 0 mm 2 mps 738 mmHg 77%
    02:00 -3°C° 0 mm 2 mps 738 mmHg 79%
    03:00 -3°C° 0 mm 2 mps 737 mmHg 80%
    04:00 -3°C° 0 mm 2 mps 737 mmHg 81%
    05:00 -3°C° 0 mm 2 mps 736 mmHg 83%
    06:00 -3°C° 0 mm 2 mps 736 mmHg 85%
    07:00 -3°C° 0 mm 2 mps 736 mmHg 88%
    08:00 -2°C° 0 mm 3 mps 735 mmHg 90%
    09:00 -2°C° 0.1 mm 3 mps 735 mmHg 89%
    10:00 -1°C° 0.1 mm 3 mps 734 mmHg 88%
    11:00 0°C° 0.1 mm 3 mps 734 mmHg 88%
    12:00 -1°C° 0.1 mm 4 mps 733 mmHg 89%
    13:00 -1°C° 0.1 mm 4 mps 733 mmHg 89%
    14:00 -1°C° 0.1 mm 4 mps 732 mmHg 90%
    15:00 -1°C° 0.3 mm 4 mps 731 mmHg 92%
    16:00 -1°C° 0.3 mm 5 mps 730 mmHg 93%
    17:00 -1°C° 0.3 mm 5 mps 729 mmHg 94%
    18:00 -1°C° 0.3 mm 5 mps 729 mmHg 95%
    19:00 0°C° 0.3 mm 4 mps 729 mmHg 95%
    20:00 0°C° 0.3 mm 4 mps 728 mmHg 96%
    21:00 0°C° 0.2 mm 4 mps 728 mmHg 94%
    22:00 0°C° 0.2 mm 4 mps 728 mmHg 93%
    23:00 0°C° 0.2 mm 4 mps 728 mmHg 92%

    26 February, Wednesday

    Time Temperature Precipitation Wind Pressure Humidity
    00:00 -1°C° 0 mm 4 mps 728 mmHg 92%
    01:00 -1°C° 0 mm 4 mps 728 mmHg 92%
    02:00 -1°C° 0 mm 3 mps 728 mmHg 92%
    03:00 -1°C° 0 mm 3 mps 728 mmHg 91%
    04:00 -1°C° 0 mm 3 mps 728 mmHg 91%
    05:00 -1°C° 0 mm 3 mps 728 mmHg 91%
    06:00 -1°C° 0 mm 3 mps 728 mmHg 90%
    07:00 -1°C° 0 mm 3 mps 729 mmHg 90%
    08:00 -1°C° 0 mm 3 mps 729 mmHg 90%
    09:00 0°C° 0 mm 3 mps 729 mmHg 85%
    10:00 0°C° 0 mm 4 mps 729 mmHg 80%
    11:00 +1°C° 0 mm 4 mps 729 mmHg 75%
    12:00 +1°C° 0 mm 4 mps 730 mmHg 73%
    13:00 +3°C° 0 mm 4 mps 730 mmHg 71%
    14:00 +3°C° 0 mm 4 mps 730 mmHg 70%
    15:00 +2°C° 0 mm 3 mps 730 mmHg 74%
    16:00 +1°C° 0 mm 3 mps 731 mmHg 78%
    17:00 +2°C° 0 mm 2 mps 731 mmHg 83%
    18:00 +1°C° 0 mm 2 mps 731 mmHg 85%
    19:00 +1°C° 0 mm 2 mps 732 mmHg 86%
    20:00 -1°C° 0 mm 2 mps 732 mmHg 88%
    21:00 -1°C° 0 mm 2 mps 733 mmHg 88%
    22:00 +1°C° 0 mm 1 mps 733 mmHg 88%
    23:00 +1°C° 0 mm 1 mps 734 mmHg 88%

    27 February, Thursday

    Time Temperature Precipitation Wind Pressure Humidity
    00:00 0°C° 0 mm 1 mps 734 mmHg 88%
    01:00 0°C° 0 mm 1 mps 734 mmHg 88%
    02:00 0°C° 0 mm 1 mps 734 mmHg 89%
    03:00 0°C° 0 mm 1 mps 735 mmHg 89%
    04:00 -1°C° 0 mm 1 mps 735 mmHg 89%
    05:00 -1°C° 0 mm 1 mps 735 mmHg 89%
    06:00 0°C° 0 mm 1 mps 735 mmHg 87%
    07:00 0°C° 0 mm 1 mps 736 mmHg 86%
    08:00 0°C° 0 mm 1 mps 736 mmHg 84%
    09:00 +1°C° 0 mm 0 mps 737 mmHg 79%
    10:00 +2°C° 0 mm 0 mps 737 mmHg 73%
    11:00 +3°C° 0 mm 0 mps 737 mmHg 67%
    12:00 +3°C° 0 mm 0 mps 738 mmHg 66%
    13:00 +4°C° 0 mm 0 mps 738 mmHg 65%
    14:00 +5°C° 0 mm 1 mps 738 mmHg 64%
    15:00 +4°C° 0 mm 1 mps 738 mmHg 70%
    16:00 +3°C° 0 mm 1 mps 738 mmHg 75%
    17:00 +2°C° 0 mm 1 mps 738 mmHg 80%
    18:00 +2°C° 0 mm 1 mps 739 mmHg 82%
    19:00 +1°C° 0 mm 1 mps 739 mmHg 84%
    20:00 -1°C° 0 mm 2 mps 739 mmHg 87%
    21:00 -2°C° 0 mm 2 mps 739 mmHg 87%
    22:00 -2°C° 0 mm 2 mps 739 mmHg 88%
    23:00 -2°C° 0 mm 2 mps 740 mmHg 88%
    Show more